Starlink 33833

operational
NORAD ID: 63498 Int'l Des: 2025-071 Owner: SPXS Country: US Constellation: starlink
LEOCIRCULAR

About Starlink 33833

Description loading...

Live Position

Loading 3D Globe...

Upcoming Passes

Altitude History

Altitude vs Time

uPlot chart will show altitude changes over time

Two-Line Element Set

1 63498U 25071F 25302.96497094 .00011449 00000-0 39822-3 0 9991
2 63498 53.1615 27.2489 0002275 88.5312 271.5949 15.30188139 32751
Epoch: Oct 29, 2025 • Age: 29 hours

Current Status

Altitude 476.1 km
Velocity 7.63 km/s
Sub-Earth Point -0.56°S, 99.92°E
Launch Date Apr 7, 2025
Age 0.5 years
Type internet

Technical Details

Classification Payload
Mass 575.00 kg
Dry Mass 530.00 kg
Total Mass 575.00 kg
Length 0.30 m
Diameter 4.10 m
Span 29.00 m
Shape Box + pan
Manufacturer SPXS
Bus Type Starlink V2MO
Phase Status In Orbit
Owner/State SPXS/US

Large Constellations

Loading constellations...